Location: Perryvale
(54.4667°N, 113.3833°W)
Time: 03:13:57
(UTC+00:00)

Vanguard 3 - Visible Passes

Search period start: 21 May 2024 00:00
Search period end: 31 May 2024 00:00
Orbit: 509 x 3233 km, 33.3° (Epoch: 20 May)

Date Brightness Start Highest point End Pass type
(mag) Time Alt. Az. Time Alt. Az. Time Alt. Az.
21 May 10.3 06:11:44 10° WSW 06:23:34 31° S 06:38:44 10° SE visible
21 May 10.6 08:25:16 10° WSW 08:36:02 20° SSW 08:47:57 10° S visible
22 May 10.1 04:54:12 10° SW 05:04:42 31° S 05:19:13 10° SE visible
22 May 10.4 07:05:49 10° WSW 07:17:11 25° SSW 07:27:41 15° SSE visible
22 May 10.9 09:23:46 10° WSW 09:29:07 12° SW 09:31:35 11° SW visible
23 May 10.2 05:47:35 10° WSW 05:58:16 28° S 06:11:19 12° SE visible
23 May 10.7 08:01:06 10° WSW 08:10:35 18° SSW 08:15:21 16° SSW visible
24 May 10.1 04:30:12 10° SW 04:39:36 29° S 04:52:55 10° SE visible
24 May 10.5 06:41:40 10° WSW 06:51:49 23° SSW 06:59:53 17° S visible
24 May 11.0 09:02:57 10° SW 09:03:41 10° SW 09:03:57 10° SW visible
25 May 10.2 05:23:33 10° WSW 05:33:05 26° S 05:44:47 12° SSE visible
25 May 10.7 07:37:16 10° WSW 07:45:13 16° SSW 07:48:52 15° SSW visible
26 May 10.5 06:17:44 10° WSW 06:26:34 20° SSW 06:34:02 15° S visible
27 May 10.2 04:59:40 10° WSW 05:08:01 23° SSW 05:19:20 10° SSE visible
27 May 10.8 07:13:55 10° SW 07:19:55 13° SSW 07:23:28 12° SSW visible
28 May 10.5 05:54:03 10° WSW 06:01:26 18° SSW 06:08:54 12° S visible
29 May 10.2 04:35:57 10° SW 04:43:02 20° SSW 04:52:34 10° SSE visible
29 May 10.8 06:51:53 10° SW 06:54:44 11° SSW 06:57:48 10° SSW visible
30 May 10.5 05:30:43 10° SW 05:36:23 15° SSW 05:43:16 10° S visible
